Estación de Morza

Ultimos registro cada 15 minutos 20
Estación Fecha / Hora Temperatura Humedad Lluvia Velocidad Dirección Radiación Presion
20 Morza 05-05-2026 04:45 9,2 91 0 0 100 0 1012,9
19 Morza 05-05-2026 04:30 9,1 90 0 0 100 0 1012,8
18 Morza 05-05-2026 04:15 9,1 91 0 0 100 0 1012,4
17 Morza 05-05-2026 04:00 9,1 91 0 0 100 0 1012,2
16 Morza 05-05-2026 03:45 9,2 90 0 0,4 100 0 1011,9
15 Morza 05-05-2026 03:30 9,2 89 0 0 127 0 1012,4
14 Morza 05-05-2026 03:15 9,2 89 0 0 150 0 1012,5
13 Morza 05-05-2026 03:00 9,2 89 0 0 150 0 1012,5
12 Morza 05-05-2026 02:45 8,9 89 0 0,4 150 0 1012,9
11 Morza 05-05-2026 02:30 8,8 90 0 0 105 0 1012,8
10 Morza 05-05-2026 02:15 8,6 91 0 0 61 0 1012,8
9 Morza 05-05-2026 02:00 8,4 91 0 0 61 0 1013
8 Morza 05-05-2026 01:45 8,3 90 0 0,4 60 0 1012,9
7 Morza 05-05-2026 01:30 8,2 90 0 0 204 0 1013,3
6 Morza 05-05-2026 01:15 7,9 90 0 0,4 204 0 1013,3
5 Morza 05-05-2026 01:00 7,9 90 0 0 204 0 1013,1
4 Morza 05-05-2026 00:45 8,1 88 0 0 204 0 1013,3
3 Morza 05-05-2026 00:30 8,4 88 0 0 204 0 1013,2
2 Morza 05-05-2026 00:15 8,7 88 0 0,4 204 0 1013,4
1 Morza 05-05-2026 00:00 8,9 88 0 0 204 0 1013,3